Location: Bondula
(6.3703°N, 10.6756°W)
Time: 23:27:49
(UTC+00:00)

PSLV R/B - Pass Details

Date: 22 October 2019
Orbit: 569 x 598 km, 98.1° (Epoch: 14 November)

Event Time Altitude Azimuth Distance (km) Brightness Sun altitude
Rises 05:20:06 0° 177° (S) 2,773 7.6 -17.6°
Reaches altitude 10° 05:22:17 10° 181° (S) 1,871 6.6 -17.1°
Maximum altitude 05:26:14 53° 259° (WSW) 702 4.0 -16.1°
Drops below altitude 10° 05:30:10 10° 336° (NNW) 1,860 6.2 -15.2°
Enters shadow 05:30:19 - 336° (NNW) 1,920 6.3 -15.1°
